Date String (YYYY-MM-DD hh:mm:ss) UTC,Instrument flags,Ambient pressure (hPa),Sample flow (lpm),Bypass flow (lpm),Sample temperature (°C),Ambient temperature (°C),ASC tube jacket temperature (°C),LED temperature (°C),Box temperature (°C),Sample RH (%),Span deviation,Mass concentration (μg/m³),Mass concentration (μg/m³),Mass concentration (μg/m³)
DateTimeUTC,F1_M11,P_M11,Q1_M11,Q2_M11,T1_M11,T2_M11,T3_M11,T4_M11,T5_M11,U1_M11,ZSPAN_M11,X0_M11,X2_M11,X1_M11
2021-09-03 14:00:00,,0829.4,5.00,0.00,30.0,26.5,00.0,39.2,31.3,29.2,0001.9,0021.15,0016.98,0016.32
2021-09-03 14:01:00,,0829.4,4.99,0.00,29.9,26.7,00.0,39.1,31.3,29.6,0001.9,0021.15,0016.99,0016.33
2021-09-03 14:02:00,,0829.5,5.00,0.00,29.8,27.1,00.0,39.1,31.3,29.4,0001.9,0021.17,0017.03,0016.36
2021-09-03 14:03:00,,0829.5,5.01,0.00,29.8,27.5,00.0,39.0,31.3,29.3,0001.9,0021.39,0017.05,0016.38
2021-09-03 14:04:00,,0829.5,4.99,0.00,29.8,27.8,00.0,39.0,31.4,29.1,0001.9,0021.56,0017.08,0016.39
2021-09-03 14:05:00,,0829.5,5.01,0.00,29.8,28.1,00.0,39.0,31.4,28.9,0001.9,0021.59,0017.09,0016.40
2021-09-03 14:06:00,,0829.5,4.99,0.00,29.8,28.3,00.0,39.0,31.5,28.8,0001.9,0021.48,0017.09,0016.41
2021-09-03 14:07:00,,0829.5,5.01,0.00,29.8,28.4,00.0,39.0,31.5,28.3,0002.1,0020.97,0017.09,0016.43
2021-09-03 14:08:00,,0829.5,4.99,0.00,29.9,28.6,00.0,39.0,31.6,27.7,0002.2,0020.79,0017.13,0016.43
2021-09-03 14:09:00,,0829.4,4.99,0.00,29.9,28.7,00.0,39.0,31.6,28.0,0002.1,0020.64,0017.16,0016.43
2021-09-03 14:10:00,,0829.4,5.01,0.00,29.9,28.8,00.0,39.0,31.7,28.2,0002.1,0020.71,0017.20,0016.43
2021-09-03 14:11:00,,0829.3,4.99,0.00,29.9,28.8,00.0,39.0,31.7,28.2,0002.0,0021.24,0017.24,0016.42
2021-09-03 14:12:00,,0829.2,5.01,0.00,30.0,28.9,00.0,39.0,31.7,28.0,0002.1,0021.38,0017.25,0016.41
2021-09-03 14:13:00,,0829.2,4.99,0.00,30.0,29.0,00.0,39.0,31.8,27.9,0002.0,0021.78,0017.20,0016.39
2021-09-03 14:14:00,,0829.2,5.00,0.00,30.0,29.0,00.0,39.0,31.8,28.0,0002.0,0021.62,0017.18,0016.36
2021-09-03 14:15:00,,0829.2,4.99,0.00,30.0,29.1,00.0,39.1,31.8,28.2,0002.0,0021.70,0017.21,0016.35
2021-09-03 14:16:00,,0829.3,5.00,0.00,30.0,29.1,00.0,39.1,31.8,28.6,0001.7,0022.23,0017.26,0016.34
2021-09-03 14:17:00,,0829.3,5.00,0.00,30.1,29.2,00.0,39.1,31.9,29.0,0001.7,0022.55,0017.25,0016.33
2021-09-03 14:18:00,,0829.3,5.01,0.00,30.1,29.2,00.0,39.1,31.9,29.7,0001.5,0022.54,0017.22,0016.30
2021-09-03 14:19:00,,0829.3,5.00,0.00,30.1,29.2,00.0,39.1,31.9,29.7,0001.4,0022.37,0017.19,0016.28
2021-09-03 14:20:00,,0829.3,5.00,0.00,30.1,29.3,00.0,39.1,31.9,29.5,0001.6,0022.71,0017.19,0016.27
2021-09-03 14:21:00,,0829.3,4.99,0.00,30.2,29.3,00.0,39.2,32.0,29.7,0001.6,0023.72,0017.18,0016.25
2021-09-03 14:22:00,,0829.3,5.01,0.00,30.2,29.3,00.0,39.2,32.0,29.9,0001.5,0023.21,0017.14,0016.25
2021-09-03 14:23:00,,0829.2,5.00,0.00,30.2,28.3,00.0,39.2,31.7,29.7,0001.3,0023.58,0017.13,0016.23
2021-09-03 14:24:00,,0829.2,4.99,0.00,30.0,26.8,00.0,39.2,31.4,29.7,0001.2,0023.14,0017.11,0016.20
2021-09-03 14:25:00,,0829.3,5.01,0.00,29.9,26.6,00.0,39.1,31.3,29.6,0001.1,0023.07,0017.06,0016.18
2021-09-03 14:26:00,,0829.3,4.99,0.00,29.8,27.0,00.0,39.1,31.3,29.3,0001.3,0022.86,0016.97,0016.16
2021-09-03 14:27:00,,0829.2,5.00,0.00,29.8,27.4,00.0,39.0,31.3,29.1,0001.5,0022.40,0016.91,0016.12
2021-09-03 14:28:00,,0829.3,4.99,0.00,29.8,27.7,00.0,39.0,31.4,29.1,0001.5,0022.18,0016.88,0016.07
2021-09-03 14:29:00,,0829.3,5.01,0.00,29.8,28.0,00.0,39.0,31.5,29.2,0001.6,0022.34,0016.85,0016.02
2021-09-03 14:30:00,,0829.2,5.00,0.00,29.8,28.2,00.0,39.0,31.5,29.3,0001.8,0022.86,0016.83,0015.99
2021-09-03 14:31:00,,0829.2,5.01,0.00,29.8,28.4,00.0,39.0,31.6,29.3,0001.7,0022.53,0016.78,0015.97
2021-09-03 14:32:00,,0829.3,5.00,0.00,29.9,28.6,00.0,39.0,31.6,29.3,0001.9,0021.54,0016.72,0015.94
2021-09-03 14:33:00,,0829.4,4.99,0.00,29.9,28.7,00.0,39.0,31.6,29.9,0002.0,0021.49,0016.66,0015.91
2021-09-03 14:34:00,,0829.3,5.00,0.00,29.9,28.8,00.0,39.0,31.7,29.3,0001.9,0021.01,0016.60,0015.89
2021-09-03 14:35:00,,0829.3,5.00,0.00,29.9,28.9,00.0,39.0,31.7,28.9,0001.6,0020.90,0016.58,0015.89
2021-09-03 14:36:00,,0829.4,5.02,0.00,30.0,28.9,00.0,39.0,31.8,28.8,0001.6,0021.36,0016.60,0015.89
2021-09-03 14:37:00,,0829.2,4.99,0.00,30.0,29.0,00.0,39.0,31.8,28.7,0001.6,0021.81,0016.58,0015.87
2021-09-03 14:38:00,,0829.4,5.00,0.00,30.0,29.1,00.0,39.0,31.8,28.5,0001.4,0021.94,0016.53,0015.86
2021-09-03 14:39:00,,0829.2,4.99,0.00,30.0,29.1,00.0,39.1,31.8,28.8,0001.3,0021.76,0016.49,0015.87
2021-09-03 14:40:00,,0829.3,4.99,0.00,30.1,29.2,00.0,39.1,31.9,28.9,0001.4,0021.41,0016.46,0015.87
2021-09-03 14:41:00,,0829.3,5.00,0.00,30.1,29.2,00.0,39.1,31.9,28.7,0001.3,0021.02,0016.45,0015.86
2021-09-03 14:42:00,,0829.3,5.02,0.00,30.1,29.3,00.0,39.1,31.9,28.3,0001.2,0021.50,0016.40,0015.84
2021-09-03 14:43:00,,0829.4,5.00,0.00,30.2,29.3,00.0,39.1,32.0,28.1,0001.1,0021.47,0016.39,0015.86
2021-09-03 14:44:00,,0829.4,4.99,0.00,30.2,29.3,00.0,39.2,32.0,28.1,0001.1,0021.48,0016.41,0015.90
2021-09-03 14:45:00,,0829.5,5.01,0.00,30.2,29.0,00.0,39.2,31.9,28.1,0001.1,0021.59,0016.42,0015.91
2021-09-03 14:46:00,,0829.5,5.00,0.00,30.1,27.3,00.0,39.2,31.5,28.1,0001.4,0021.54,0016.43,0015.92
2021-09-03 14:47:00,,0829.5,5.00,0.00,29.9,26.0,00.0,39.1,31.1,28.3,0001.6,0021.47,0016.45,0015.94
2021-09-03 14:48:00,,0829.5,5.00,0.00,29.8,26.0,00.0,39.1,31.1,28.7,0001.7,0023.37,0016.62,0015.97
2021-09-03 14:49:00,,0829.5,5.01,0.00,29.7,26.4,00.0,39.0,31.1,29.1,0001.8,0024.20,0016.71,0015.99
2021-09-03 14:50:00,,0829.5,5.01,0.00,29.7,26.9,00.0,39.0,31.2,29.1,0001.9,0025.07,0016.78,0016.01
2021-09-03 14:51:00,,0829.5,5.01,0.00,29.7,27.3,00.0,38.9,31.2,29.3,0002.1,0025.32,0016.78,0016.02
2021-09-03 14:52:00,,0829.5,5.00,0.00,29.7,27.7,00.0,38.9,31.3,29.2,0002.1,0025.82,0016.80,0016.06
2021-09-03 14:53:00,,0829.5,5.01,0.00,29.7,28.0,00.0,38.9,31.4,29.3,0002.2,0025.16,0016.82,0016.09
2021-09-03 14:54:00,,0829.5,5.00,0.00,29.7,28.2,00.0,38.9,31.4,29.2,0002.2,0024.95,0016.84,0016.08
2021-09-03 14:55:00,,0829.5,4.99,0.00,29.7,28.3,00.0,38.9,31.5,29.5,0002.2,0025.04,0016.87,0016.05
2021-09-03 14:56:00,,0829.5,5.00,0.00,29.8,28.5,00.0,38.9,31.5,29.5,0002.2,0024.82,0016.88,0016.05
2021-09-03 14:57:00,,0829.5,5.01,0.00,29.8,28.6,00.0,38.9,31.5,29.2,0002.2,0024.92,0016.92,0016.08
2021-09-03 14:58:00,,0829.5,5.00,0.00,29.8,28.7,00.0,38.9,31.6,29.1,0002.2,0024.75,0016.88,0016.07
2021-09-03 14:59:00,,0829.5,4.99,0.00,29.8,28.8,00.0,38.9,31.6,29.3,0002.1,0022.34,0016.75,0016.06
